Radiation Dose at Monitoring Post of Fukushima Daini Nuclear Power Station
Date,Time,MP-1(microSv/h),MP-2(microSv/h),MP-3(microSv/h),MP-4(microSv/h),MP-5(microSv/h),MP-6(microSv/h),MP-7(microSv/h),Wind Direction,Wind Velocity(m/s),Rain
2021/06/07,00:00,0.164,0.150,0.238,0.232,0.232,0.129,0.080,west-northwest,3.8,No
2021/06/07,00:10,0.165,0.150,0.238,0.232,0.234,0.128,0.081,west-northwest,6.9,No
2021/06/07,00:20,0.164,0.149,0.237,0.232,0.231,0.129,0.080,west-northwest,7.3,No
2021/06/07,00:30,0.165,0.151,0.239,0.230,0.234,0.129,0.081,west-northwest,6.1,No
2021/06/07,00:40,0.165,0.149,0.237,0.231,0.231,0.129,0.081,west-northwest,6.0,No
2021/06/07,00:50,0.164,0.150,0.238,0.231,0.231,0.129,0.080,northwest,4.9,No
2021/06/07,01:00,0.165,0.149,0.239,0.232,0.232,0.129,0.080,northwest,3.8,No
2021/06/07,01:10,0.164,0.151,0.236,0.230,0.231,0.129,0.080,northwest,2.8,No
2021/06/07,01:20,0.165,0.149,0.239,0.231,0.234,0.129,0.081,west-northwest,2.5,No
2021/06/07,01:30,0.164,0.150,0.238,0.230,0.230,0.129,0.080,west-northwest,2.5,No
2021/06/07,01:40,0.165,0.149,0.240,0.232,0.233,0.128,0.081,west-northwest,3.3,No
2021/06/07,01:50,0.164,0.151,0.236,0.231,0.233,0.129,0.080,west,2.7,No
2021/06/07,02:00,0.165,0.149,0.238,0.230,0.231,0.129,0.080,west-northwest,3.0,No
2021/06/07,02:10,0.164,0.150,0.237,0.231,0.234,0.129,0.081,west-northwest,4.6,No
2021/06/07,02:20,0.165,0.149,0.239,0.230,0.231,0.128,0.081,west-northwest,5.0,No
2021/06/07,02:30,0.166,0.151,0.239,0.231,0.233,0.130,0.080,west-northwest,5.0,No
2021/06/07,02:40,0.164,0.150,0.237,0.229,0.232,0.128,0.080,west-northwest,3.5,No
2021/06/07,02:50,0.167,0.152,0.239,0.231,0.231,0.129,0.081,west,2.7,No
2021/06/07,03:00,0.164,0.149,0.238,0.231,0.234,0.129,0.080,west-northwest,1.5,No
2021/06/07,03:10,0.165,0.150,0.238,0.231,0.230,0.128,0.080,west-northwest,1.3,No
2021/06/07,03:20,0.165,0.150,0.238,0.232,0.233,0.128,0.081,west,1.1,No
2021/06/07,03:30,0.165,0.150,0.238,0.231,0.232,0.128,0.080,west-northwest,1.9,No
2021/06/07,03:40,0.165,0.150,0.237,0.230,0.232,0.129,0.081,west-northwest,1.3,No
2021/06/07,03:50,0.165,0.150,0.240,0.231,0.233,0.129,0.080,north-northwest,1.3,No
2021/06/07,04:00,0.164,0.149,0.237,0.232,0.231,0.129,0.081,north,1.9,No
2021/06/07,04:10,0.164,0.150,0.238,0.232,0.235,0.129,0.081,north,2.6,No
2021/06/07,04:20,0.166,0.150,0.238,0.231,0.232,0.130,0.080,north-northwest,2.0,No
2021/06/07,04:30,0.164,0.150,0.239,0.230,0.233,0.129,0.081,north,1.7,No
2021/06/07,04:40,0.167,0.150,0.237,0.232,0.233,0.129,0.082,north,2.5,No
2021/06/07,04:50,0.164,0.149,0.239,0.231,0.232,0.128,0.081,north-northwest,5.3,No
2021/06/07,05:00,0.165,0.150,0.237,0.232,0.234,0.129,0.081,north-northwest,5.3,No
2021/06/07,05:10,0.164,0.150,0.240,0.230,0.231,0.129,0.080,north-northwest,4.8,No
2021/06/07,05:20,0.165,0.150,0.238,0.232,0.234,0.129,0.080,north-northwest,4.6,No
2021/06/07,05:30,0.165,0.150,0.239,0.231,0.232,0.129,0.081,north-northwest,4.2,No
2021/06/07,05:40,0.165,0.150,0.238,0.232,0.233,0.130,0.081,northwest,2.4,No
2021/06/07,05:50,0.166,0.150,0.240,0.231,0.234,0.130,0.081,northwest,2.3,No
2021/06/07,06:00,0.165,0.151,0.237,0.231,0.231,0.129,0.081,northwest,1.8,No
2021/06/07,06:10,0.166,0.149,0.239,0.232,0.234,0.129,0.081,north-northwest,1.9,No
2021/06/07,06:20,0.165,0.150,0.238,0.230,0.233,0.129,0.081,northwest,1.9,No
2021/06/07,06:30,0.166,0.151,0.238,0.232,0.233,0.129,0.082,north,0.6,No
2021/06/07,06:40,0.166,0.150,0.240,0.230,0.234,0.130,0.081,east-northeast,0.6,No
2021/06/07,06:50,0.165,0.149,0.238,0.234,0.232,0.129,0.080,northeast,0.6,No
2021/06/07,07:00,0.166,0.151,0.238,0.230,0.234,0.130,0.082,east-northeast,1.1,No
2021/06/07,07:10,0.165,0.149,0.237,0.231,0.231,0.129,0.081,northeast,0.8,No
2021/06/07,07:20,0.166,0.150,0.239,0.232,0.234,0.130,0.082,north-northeast,1.3,No
2021/06/07,07:30,0.165,0.150,0.238,0.230,0.234,0.130,0.081,north,0.9,No
2021/06/07,07:40,0.166,0.150,0.238,0.233,0.231,0.130,0.082,northeast,0.8,No
2021/06/07,07:50,0.166,0.151,0.239,0.229,0.234,0.130,0.081,north-northeast,1.3,No
2021/06/07,08:00,0.165,0.149,0.237,0.232,0.233,0.128,0.081,north-northeast,1.2,No
2021/06/07,08:10,0.165,0.150,0.239,0.231,0.231,0.130,0.082,east-northeast,0.9,No
2021/06/07,08:20,0.165,0.149,0.239,0.230,0.235,0.129,0.081,-,CALM,No
2021/06/07,08:30,0.165,0.150,0.237,0.232,0.233,0.129,0.081,east-northeast,1.4,No
2021/06/07,08:40,0.166,0.151,0.240,0.231,0.232,0.129,0.082,east-southeast,1.0,No
2021/06/07,08:50,0.166,0.148,0.237,0.229,0.233,0.130,0.080,southeast,0.9,No
2021/06/07,09:00,0.166,0.151,0.238,0.232,0.234,0.129,0.081,south-southeast,1.0,No
2021/06/07,09:10,0.165,0.151,0.238,0.230,0.231,0.131,0.081,south,0.9,No
2021/06/07,09:20,0.164,0.150,0.238,0.231,0.234,0.129,0.081,south,0.9,No
2021/06/07,09:30,0.166,0.151,0.239,0.232,0.235,0.129,0.082,-,CALM,No
2021/06/07,09:40,0.165,0.150,0.240,0.231,0.231,0.131,0.081,-,CALM,No
2021/06/07,09:50,0.163,0.150,0.236,0.230,0.234,0.130,0.082,south-southwest,0.9,No
2021/06/07,10:00,0.166,0.151,0.240,0.232,0.234,0.130,0.081,south,0.9,No
2021/06/07,10:10,0.167,0.150,0.237,0.231,0.232,0.130,0.081,south,1.2,No
2021/06/07,10:20,0.164,0.150,0.237,0.230,0.232,0.129,0.082,south,1.5,No
2021/06/07,10:30,0.167,0.150,0.239,0.232,0.235,0.129,0.081,south,1.3,No
2021/06/07,10:40,0.167,0.149,0.239,0.232,0.233,0.129,0.081,south,1.6,No
2021/06/07,10:50,0.163,0.149,0.237,0.229,0.230,0.129,0.081,south,2.0,No
2021/06/07,11:00,0.165,0.150,0.237,0.230,0.234,0.128,0.080,south,1.9,No
2021/06/07,11:10,0.168,0.150,0.240,0.232,0.234,0.130,0.081,south,2.3,No
2021/06/07,11:20,0.165,0.149,0.239,0.231,0.232,0.130,0.081,south,3.1,No
2021/06/07,11:30,0.163,0.150,0.237,0.230,0.231,0.130,0.080,south-southeast,3.5,No
2021/06/07,11:40,0.164,0.149,0.237,0.229,0.231,0.129,0.081,south-southeast,3.7,No
2021/06/07,11:50,0.166,0.150,0.236,0.232,0.231,0.129,0.080,south,4.2,No
2021/06/07,12:00,0.165,0.150,0.235,0.233,0.231,0.129,0.080,south-southeast,3.9,No
2021/06/07,12:10,0.165,0.149,0.237,0.231,0.230,0.130,0.079,south-southeast,4.4,No
2021/06/07,12:20,0.164,0.149,0.236,0.231,0.231,0.128,0.080,south-southeast,4.1,No
2021/06/07,12:30,0.163,0.149,0.236,0.230,0.232,0.128,0.080,south-southeast,2.5,No
2021/06/07,12:40,0.163,0.148,0.237,0.230,0.231,0.129,0.080,southeast,2.5,No
2021/06/07,12:50,0.163,0.149,0.238,0.230,0.232,0.128,0.079,south-southeast,2.7,No
2021/06/07,13:00,0.163,0.149,0.238,0.230,0.232,0.129,0.079,south-southeast,4.5,No
2021/06/07,13:10,0.163,0.149,0.237,0.230,0.231,0.130,0.080,south-southeast,6.4,No
2021/06/07,13:20,0.164,0.149,0.237,0.230,0.233,0.129,0.081,south-southeast,5.9,No
2021/06/07,13:30,0.163,0.148,0.238,0.230,0.233,0.129,0.081,south-southeast,5.1,No
2021/06/07,13:40,0.164,0.148,0.237,0.230,0.232,0.129,0.080,south-southeast,4.5,No
2021/06/07,13:50,0.164,0.148,0.238,0.231,0.231,0.129,0.081,south-southeast,7.0,No
2021/06/07,14:00,0.164,0.149,0.237,0.230,0.231,0.129,0.080,south-southeast,6.1,No
2021/06/07,14:10,0.165,0.148,0.237,0.230,0.231,0.131,0.079,southeast,6.8,No
2021/06/07,14:20,0.164,0.149,0.237,0.229,0.232,0.130,0.080,southeast,3.6,No
2021/06/07,14:30,0.163,0.151,0.239,0.232,0.232,0.129,0.081,south-southeast,6.5,No
2021/06/07,14:40,0.163,0.151,0.241,0.234,0.230,0.130,0.081,south-southeast,7.4,No
2021/06/07,14:50,0.165,0.150,0.241,0.233,0.233,0.129,0.080,south-southeast,7.9,No
2021/06/07,15:00,0.168,0.149,0.240,0.231,0.235,0.130,0.080,south-southeast,8.3,No
2021/06/07,15:10,0.167,0.150,0.237,0.230,0.235,0.130,0.080,south-southeast,8.2,No
2021/06/07,15:20,0.165,0.151,0.238,0.231,0.233,0.130,0.081,south-southeast,6.5,No
2021/06/07,15:30,0.164,0.150,0.238,0.233,0.232,0.130,0.081,south-southeast,5.6,No
2021/06/07,15:40,0.164,0.150,0.238,0.233,0.233,0.129,0.080,south-southeast,6.2,No
2021/06/07,15:50,0.163,0.150,0.238,0.232,0.232,0.129,0.080,south-southeast,7.1,No
2021/06/07,16:00,0.164,0.150,0.241,0.230,0.230,0.130,0.081,south-southeast,8.1,No
2021/06/07,16:10,0.164,0.152,0.241,0.232,0.231,0.130,0.080,south,7.1,No
2021/06/07,16:20,0.167,0.150,0.238,0.233,0.230,0.130,0.080,south,7.0,No
2021/06/07,16:30,0.167,0.150,0.241,0.232,0.230,0.129,0.081,south,7.7,No
2021/06/07,16:40,0.165,0.151,0.240,0.233,0.234,0.130,0.080,south,7.3,No
2021/06/07,16:50,0.164,0.149,0.239,0.234,0.236,0.130,0.081,south,7.6,No
2021/06/07,17:00,0.168,0.151,0.241,0.233,0.234,0.129,0.081,south,7.4,No
2021/06/07,17:10,0.166,0.151,0.240,0.232,0.231,0.129,0.081,south,7.3,No
2021/06/07,17:20,0.164,0.149,0.238,0.234,0.232,0.130,0.082,south-southwest,7.9,No
2021/06/07,17:30,0.166,0.151,0.240,0.233,0.235,0.130,0.081,south-southwest,7.2,No
2021/06/07,17:40,0.167,0.152,0.241,0.232,0.235,0.129,0.080,south,4.8,No
2021/06/07,17:50,0.165,0.149,0.239,0.235,0.233,0.130,0.081,south-southwest,3.7,No
2021/06/07,18:00,0.166,0.151,0.238,0.232,0.231,0.130,0.081,west,1.3,No
2021/06/07,18:10,0.167,0.151,0.242,0.232,0.230,0.129,0.081,west-northwest,1.7,No
2021/06/07,18:20,0.165,0.149,0.239,0.234,0.234,0.129,0.081,west,1.5,Yes
2021/06/07,18:30,0.164,0.151,0.239,0.232,0.237,0.131,0.081,west,1.9,Yes
2021/06/07,18:40,0.167,0.151,0.241,0.233,0.233,0.131,0.082,southwest,1.5,No
2021/06/07,18:50,0.166,0.152,0.239,0.235,0.233,0.131,0.082,southwest,3.0,No
2021/06/07,19:00,0.166,0.151,0.240,0.231,0.235,0.130,0.081,southwest,5.3,No
2021/06/07,19:10,0.166,0.150,0.241,0.233,0.234,0.130,0.082,southwest,4.1,No
2021/06/07,19:20,0.164,0.151,0.239,0.234,0.235,0.131,0.081,southwest,3.3,No
2021/06/07,19:30,0.166,0.150,0.241,0.233,0.236,0.130,0.082,southwest,1.6,No
2021/06/07,19:40,0.167,0.150,0.240,0.234,0.233,0.130,0.082,west-southwest,1.7,No
2021/06/07,19:50,0.165,0.151,0.240,0.231,0.236,0.130,0.082,southwest,1.3,No
2021/06/07,20:00,0.167,0.150,0.242,0.234,0.234,0.130,0.080,west-southwest,1.5,No
2021/06/07,20:10,0.165,0.151,0.240,0.233,0.232,0.131,0.081,west-southwest,2.1,No
2021/06/07,20:20,0.167,0.151,0.240,0.233,0.236,0.129,0.082,west-southwest,2.8,No
2021/06/07,20:30,0.167,0.151,0.239,0.234,0.232,0.130,0.081,west-southwest,2.4,No
2021/06/07,20:40,0.165,0.150,0.240,0.232,0.234,0.130,0.082,west-southwest,2.6,No
2021/06/07,20:50,0.166,0.151,0.240,0.234,0.234,0.130,0.081,west,3.0,No
2021/06/07,21:00,0.166,0.151,0.241,0.233,0.232,0.130,0.081,west,2.9,No
2021/06/07,21:10,0.167,0.151,0.241,0.235,0.234,0.130,0.080,west,3.2,No
2021/06/07,21:20,0.167,0.151,0.240,0.233,0.232,0.129,0.081,west-northwest,2.4,No
2021/06/07,21:30,0.166,0.151,0.241,0.233,0.235,0.130,0.081,west,3.2,No
2021/06/07,21:40,0.167,0.152,0.239,0.234,0.233,0.129,0.081,west,4.0,No
2021/06/07,21:50,0.164,0.151,0.241,0.233,0.233,0.130,0.081,west,4.6,No
2021/06/07,22:00,0.167,0.152,0.240,0.233,0.234,0.131,0.081,west-northwest,3.3,No
2021/06/07,22:10,0.165,0.151,0.242,0.232,0.233,0.129,0.081,west-northwest,2.8,No
2021/06/07,22:20,0.166,0.151,0.239,0.235,0.235,0.131,0.081,west,3.2,No
2021/06/07,22:30,0.168,0.150,0.241,0.232,0.233,0.130,0.082,west-northwest,3.1,No
2021/06/07,22:40,0.166,0.152,0.240,0.235,0.233,0.130,0.082,west,2.2,No
2021/06/07,22:50,0.168,0.150,0.241,0.233,0.234,0.131,0.081,northwest,0.8,No
2021/06/07,23:00,0.166,0.152,0.242,0.233,0.231,0.130,0.081,northwest,2.5,No
2021/06/07,23:10,0.167,0.151,0.241,0.234,0.236,0.130,0.081,northeast,1.6,No
2021/06/07,23:20,0.166,0.152,0.240,0.233,0.235,0.130,0.081,east,1.9,No
2021/06/07,23:30,0.167,0.150,0.242,0.233,0.234,0.130,0.081,west-northwest,1.9,No
2021/06/07,23:40,0.166,0.151,0.240,0.233,0.235,0.130,0.081,west-northwest,3.2,No
2021/06/07,23:50,0.167,0.150,0.240,0.234,0.233,0.130,0.081,northwest,2.3,No
